GW7169 Weather Reports


time (UTC)temp
C
wind
direction
speed
KPH
gust
KPH
rain 1hr
cm
rain 24hr
cm
rain mn
cm
humidity
%
barometer
mb
20260504110345 16 319 3.2 4.8 0.00 0.00 0.05 52 1013.5
20260504100344 15 219 4.8 4.8 0.00 0.00 0.05 56 1013.9
20260504081845 17 229 4.8 11.3 0.00 0.00 0.00 40 1013.5
20260504081346 16 7 9.7 12.9 0.00 0.00 0.00 41 1013.5
20260504080844 16 356 11.3 20.9 0.00 0.00 0.00 41 1013.5
20260504080344 16 158 3.2 3.2 0.00 0.00 0.00 43 1013.5
20260504070344 16 314 3.2 3.2 0.00 0.00 0.00 42 1013.5
20260504050344 13 320 3.2 4.8 0.00 0.00 0.00 51 1013.5
20260504045846 14 274 4.8 8.0 0.00 0.00 0.00 54 1013.9
20260504045344 13 209 4.8 4.8 0.00 0.00 0.00 54 1013.5
20260504044844 13 260 3.2 4.8 0.00 0.00 0.00 56 1014.2
20260504044344 13 287 4.8 4.8 0.00 0.00 0.00 59 1013.9
20260504043844 13 280 3.2 3.2 0.00 0.00 0.00 60 1013.9
20260504043344 12 269 1.6 1.6 0.00 0.00 0.00 62 1013.5
20260504042845 12 234 4.8 4.8 0.00 0.00 0.00 63 1013.5
20260504042344 12 236 1.6 1.6 0.00 0.00 0.00 63 1013.9
20260504041429 12 333 4.8 8.0 0.00 0.00 0.00 63 1013.9
20260504040845 12 188 1.6 3.2 0.00 0.00 0.00 63 1013.5
20260504040344 12 182 6.4 14.5 0.00 0.00 0.00 62 1013.5
20260504035845 12 252 4.8 9.7 0.00 0.00 0.00 60 1013.5
20260504035345 12 260 1.6 1.6 0.00 0.00 0.00 59 1013.5
20260504034844 12 208 8.0 12.9 0.00 0.00 0.00 59 1013.5
20260504034344 12 113 6.4 11.3 0.00 0.00 0.00 58 1013.5
20260504033844 12 261 1.6 1.6 0.00 0.00 0.00 58 1013.2
20260504033345 12 274 1.6 1.6 0.00 0.00 0.00 57 1013.2
20260504032845 12 256 3.2 8.0 0.00 0.00 0.00 58 1013.2
20260504032345 12 280 3.2 3.2 0.00 0.00 0.00 56 1012.9
20260504031845 12 243 1.6 1.6 0.00 0.00 0.00 54 1012.9
20260504031346 12 275 1.6 1.6 0.00 0.00 0.00 50 1012.9
20260504030844 12 238 1.6 1.6 0.00 0.00 0.00 49 1013.2
20260504030345 11 269 3.2 3.2 0.00 0.00 0.00 49 1012.9
20260504025844 11 281 0.0 0.0 0.00 0.00 0.00 50 1012.9
20260504025344 11 225 6.4 8.0 0.00 0.00 0.00 50 1012.9
20260504024844 12 274 1.6 1.6 0.00 0.00 0.00 51 1013.2
20260504024344 12 217 1.6 1.6 0.00 0.00 0.00 51 1012.9
20260504023846 12 211 1.6 1.6 0.00 0.00 0.00 51 1013.2
20260504023344 12 212 3.2 4.8 0.00 0.00 0.00 51 1012.9
20260504022844 12 247 1.6 1.6 0.00 0.00 0.00 52 1013.2
20260504022344 12 285 3.2 3.2 0.00 0.00 0.00 51 1012.9
20260504021844 12 265 0.0 0.0 0.00 0.00 0.00 52 1013.2
20260504021345 12 299 0.0 0.0 0.00 0.00 0.00 52 1013.2
20260504020401 12 237 3.2 4.8 0.00 0.00 0.00 52 1012.9
20260504015844 12 226 1.6 1.6 0.00 0.00 0.00 52 1012.9
20260504015344 12 263 0.0 0.0 0.00 0.00 0.00 53 1012.9
20260504014845 12 235 0.0 0.0 0.00 0.00 0.00 56 1012.9
20260504014344 12 228 1.6 1.6 0.00 0.00 0.00 56 1012.9
20260504013844 12 232 0.0 0.0 0.00 0.00 0.00 57 1012.9
20260504013344 12 278 1.6 1.6 0.00 0.00 0.00 57 1012.9
20260504012845 12 234 0.0 0.0 0.00 0.00 0.00 58 1012.9
20260504012345 12 235 1.6 1.6 0.00 0.00 0.00 59 1012.9
20260504011844 12 219 1.6 3.2 0.00 0.00 0.00 59 1012.9
20260504011344 12 275 1.6 3.2 0.00 0.00 0.00 60 1012.5
20260504010844 12 229 3.2 3.2 0.00 0.00 0.00 61 1012.9
20260504010346 12 168 1.6 1.6 0.00 0.00 0.00 60 1012.9
20260504005844 12 262 1.6 1.6 0.00 0.00 0.00 60 1012.9
20260504005345 12 269 1.6 1.6 0.00 0.00 0.00 59 1012.9
20260504004844 12 246 1.6 1.6 0.00 0.00 0.00 58 1012.9
20260504004344 12 200 4.8 11.3 0.00 0.00 0.00 57 1012.9
20260504003844 12 282 1.6 3.2 0.00 0.00 0.00 51 1012.9
20260504003344 12 207 3.2 3.2 0.00 0.00 0.00 49 1012.9
20260504002845 12 268 1.6 1.6 0.00 0.00 0.00 49 1012.9
20260504002345 12 126 4.8 9.7 0.00 0.00 0.00 48 1012.5
20260504001845 12 212 4.8 4.8 0.00 0.00 0.00 50 1012.5
20260504000912 12 137 1.6 3.2 0.00 0.00 0.00 52 1012.5
20260503235946 12 257 12.9 16.1 0.00 0.00 0.00 54 1012.5
20260503235353 12 257 3.2 3.2 0.00 0.00 0.00 54 1012.5
20260503234849 12 244 3.2 4.8 0.00 0.00 0.00 53 1012.2
20260503234344 12 231 0.0 0.0 0.00 0.00 0.00 53 1012.5
20260503233845 12 312 4.8 4.8 0.00 0.00 0.00 53 1012.9
20260503233344 12 228 8.0 9.7 0.00 0.00 0.00 52 1012.5
20260503232844 12 246 1.6 1.6 0.00 0.00 0.00 52 1012.9
20260503232344 12 275 3.2 3.2 0.00 0.00 0.00 51 1012.5
20260503231844 12 257 3.2 3.2 0.00 0.00 0.00 50 1012.9
20260503231344 12 286 4.8 4.8 0.00 0.00 0.00 50 1012.9
20260503230844 12 247 3.2 3.2 0.00 0.00 0.00 51 1012.9
20260503230344 12 201 3.2 3.2 0.00 0.00 0.00 51 1012.9
20260503225844 13 267 6.4 9.7 0.00 0.00 0.00 51 1012.9
20260503225345 13 262 11.3 17.7 0.00 0.00 0.00 51 1013.2
20260503224844 13 274 11.3 12.9 0.00 0.00 0.00 51 1012.9
20260503224346 13 253 9.7 12.9 0.00 0.00 0.00 50 1012.9
20260503223845 13 265 6.4 9.7 0.00 0.00 0.00 49 1012.9
20260503223344 13 267 3.2 4.8 0.00 0.00 0.00 50 1012.9
20260503222844 13 310 8.0 16.1 0.00 0.00 0.00 49 1012.9
20260503222344 13 323 1.6 8.0 0.00 0.00 0.00 51 1012.9
20260503221844 13 275 8.0 9.7 0.00 0.00 0.00 51 1012.9
20260503221344 13 252 4.8 11.3 0.00 0.00 0.00 52 1012.9
20260503220844 13 166 3.2 3.2 0.00 0.00 0.00 52 1012.9
20260503220345 13 260 1.6 1.6 0.00 0.00 0.00 54 1012.9
20260503215845 13 190 3.2 3.2 0.00 0.00 0.00 56 1012.5
20260503215344 13 211 9.7 16.1 0.00 0.00 0.00 58 1012.9
20260503214845 13 331 4.8 4.8 0.00 0.00 0.00 57 1012.9
20260503214344 13 181 1.6 3.2 0.00 0.00 0.00 54 1012.9
20260503213845 13 245 3.2 9.7 0.00 0.00 0.00 55 1012.9
20260503213345 13 310 11.3 12.9 0.00 0.00 0.00 54 1012.9
20260503212844 13 263 6.4 12.9 0.00 0.00 0.00 55 1012.9
20260503212344 13 321 4.8 4.8 0.00 0.00 0.00 55 1012.9
20260503211844 13 273 4.8 4.8 0.00 0.00 0.00 55 1012.9
20260503211345 13 262 4.8 8.0 0.00 0.00 0.00 55 1012.9
20260503210844 13 3 8.0 14.5 0.00 0.00 0.00 54 1012.9
20260503210344 13 254 11.3 16.1 0.00 0.00 0.00 54 1012.9
20260503205845 13 269 9.7 12.9 0.00 0.00 0.00 54 1012.9
20260503205344 13 302 4.8 8.0 0.00 0.00 0.00 54 1012.9
20260503204845 13 227 4.8 8.0 0.00 0.00 0.00 53 1012.9
20260503204345 13 239 9.7 14.5 0.00 0.00 0.00 53 1012.9
20260503203845 14 328 6.4 9.7 0.00 0.00 0.00 54 1012.9
20260503203344 14 287 8.0 12.9 0.00 0.00 0.00 52 1012.9
20260503202844 14 211 6.4 16.1 0.00 0.00 0.00 52 1012.9
20260503202345 14 209 14.5 20.9 0.00 0.00 0.00 52 1012.9
20260503201848 15 243 8.0 16.1 0.00 0.00 0.00 52 1012.9
20260503201345 15 235 8.0 11.3 0.00 0.00 0.00 50 1012.9
20260503200845 15 244 8.0 11.3 0.00 0.00 0.00 49 1012.9
20260503200344 15 288 11.3 14.5 0.00 0.00 0.00 50 1012.5
20260503195844 15 234 8.0 14.5 0.00 0.00 0.00 50 1012.9
20260503195344 15 212 9.7 16.1 0.00 0.00 0.00 50 1012.5
20260503194845 15 262 8.0 14.5 0.00 0.00 0.00 51 1012.9
20260503194344 15 234 8.0 11.3 0.00 0.00 0.00 52 1012.5
20260503193844 16 216 3.2 8.0 0.00 0.00 0.00 52 1012.5
20260503193344 16 272 3.2 3.2 0.00 0.00 0.00 54 1012.5
20260503192845 16 243 3.2 4.8 0.00 0.00 0.00 54 1012.9
20260503192344 16 182 12.9 16.1 0.00 0.00 0.00 54 1012.5
20260503191845 16 349 4.8 9.7 0.00 0.00 0.00 53 1012.9
20260503191344 16 237 6.4 9.7 0.00 0.00 0.00 53 1012.5
20260503190844 16 230 3.2 4.8 0.00 0.00 0.00 54 1012.5
20260503190345 16 293 6.4 9.7 0.00 0.00 0.00 54 1012.5
20260503185844 15 249 1.6 1.6 0.00 0.00 0.00 55 1012.2
20260503185345 15 230 3.2 4.8 0.00 0.00 0.00 55 1012.5
20260503184844 16 278 14.5 22.5 0.00 0.00 0.00 55 1012.5
20260503184344 16 281 3.2 3.2 0.00 0.00 0.00 54 1012.5
20260503183845 16 326 9.7 16.1 0.00 0.00 0.00 54 1012.5
20260503183346 16 324 12.9 22.5 0.00 0.00 0.00 55 1012.5
20260503182844 16 262 4.8 14.5 0.00 0.00 0.00 54 1012.2
20260503182344 16 246 8.0 11.3 0.00 0.00 0.00 53 1011.9
20260503181844 16 269 6.4 8.0 0.00 0.00 0.00 53 1011.5
20260503181344 16 286 6.4 8.0 0.00 0.00 0.00 55 1011.9
20260503180844 16 192 4.8 8.0 0.00 0.00 0.00 57 1011.9
20260503180344 17 22 3.2 3.2 0.00 0.00 0.00 56 1011.9
20260503175844 17 245 3.2 4.8 0.00 0.00 0.00 54 1011.5
20260503175345 17 283 3.2 4.8 0.00 0.00 0.00 51 1011.2
20260503174845 17 155 1.6 1.6 0.00 0.00 0.00 51 1011.2
20260503174344 17 285 1.6 3.2 0.00 0.00 0.00 51 1011.2
20260503173844 17 248 1.6 1.6 0.00 0.00 0.00 51 1011.2
20260503173345 17 184 1.6 1.6 0.00 0.00 0.00 52 1011.2
20260503172844 17 244 3.2 4.8 0.00 0.00 0.00 52 1011.2
20260503172346 17 295 3.2 3.2 0.00 0.00 0.00 52 1011.2
20260503171844 17 261 1.6 3.2 0.00 0.00 0.00 52 1011.2
20260503171344 17 226 3.2 3.2 0.00 0.00 0.00 52 1011.2
20260503170844 17 279 4.8 4.8 0.00 0.00 0.00 52 1011.2
20260503170345 17 249 6.4 12.9 0.00 0.00 0.00 52 1011.2
20260503150844 20 316 11.3 14.5 0.00 0.00 0.00 46 1009.1
20260503150345 20 292 6.4 8.0 0.00 0.00 0.00 45 1009.5
20260503131345 22 267 4.8 4.8 0.00 0.00 0.00 42 1008.5
20260503130844 22 249 9.7 16.1 0.00 0.00 0.00 40 1008.8
20260503130344 23 256 12.9 25.7 0.00 0.00 0.00 39 1008.8